DW5244 Weather Reports


Display with metric or nautical units.
time (UTC)temp
F
wind
direction
speed
MPH
gust
MPH
rain 1hr
in
rain 24hr
in
rain mn
in
humidity
%
barometer
mb
20260506090053 69 360 2.0 6.0 0.00 0.00 0.00 28 1012.7
20260506084548 70 360 4.0 8.0 0.00 0.00 0.00 28 1012.8
20260506083041 71 360 7.0 10.0 0.00 0.00 0.00 27 1012.8
20260506081540 71 360 7.0 12.0 0.00 0.00 0.00 26 1012.9
20260506073035 71 360 7.0 10.0 0.00 0.00 0.00 26 1013.0
20260506071532 72 360 7.0 10.0 0.00 0.00 0.00 25 1013.0
20260506061526 72 360 4.0 8.0 0.00 0.00 0.00 26 1012.5
20260506044514 74 326 0.0 3.0 0.00 0.00 0.00 25 1012.0
20260506043014 75 325 1.0 5.0 0.00 0.00 0.00 24 1011.9
20260506041513 76 319 2.0 6.0 0.00 0.00 0.00 22 1011.7
20260506040021 77 320 2.0 6.0 0.00 0.00 0.00 22 1011.4
20260506034519 77 331 3.0 6.0 0.00 0.00 0.00 21 1011.5
20260506033011 78 340 4.0 6.0 0.00 0.00 0.00 20 1011.1
20260506031511 78 325 5.0 9.0 0.00 0.00 0.00 20 1011.0
20260506030025 79 336 4.0 8.0 0.00 0.00 0.00 20 1010.8
20260506024517 79 355 7.0 10.0 0.00 0.00 0.00 19 1010.6
20260506023012 80 355 6.0 13.0 0.00 0.00 0.00 19 1010.2
20260506021508 80 336 9.0 15.0 0.00 0.00 0.00 18 1010.3
20260506020008 81 333 6.0 12.0 0.00 0.00 0.00 18 1010.1
20260506014506 81 355 11.0 15.0 0.00 0.00 0.00 17 1010.0
20260506013008 81 360 10.0 18.0 0.00 0.00 0.00 17 1009.7
20260506011505 82 346 10.0 14.0 0.00 0.00 0.00 17 1009.5
20260506010010 82 355 11.0 16.0 0.00 0.00 0.00 16 1009.2
20260506004505 83 360 15.0 20.0 0.00 0.00 0.00 16 1008.9
20260506003004 83 351 16.0 23.0 0.00 0.00 0.00 17 1009.2
20260506001502 85 355 11.0 19.0 0.00 0.00 0.00 16 1009.0
20260506000002 86 360 6.0 10.0 0.00 0.00 0.00 16 1008.7
20260505234504 87 336 8.0 14.0 0.00 0.00 0.00 13 1008.5
20260505233102 88 344 0.0 6.0 0.00 0.00 0.00 13 1008.4
20260505231559 88 333 3.0 12.0 0.00 0.00 0.00 15 1008.6
20260505230106 87 360 9.0 16.0 0.00 0.00 0.00 16 1008.7
20260505224556 89 339 6.0 13.0 0.00 0.00 0.00 15 1008.8
20260505223107 89 316 7.0 13.0 0.00 0.00 0.00 14 1009.1
20260505221553 89 342 6.0 11.0 0.00 0.00 0.00 15 1009.2
20260505220051 89 317 7.0 12.0 0.00 0.00 0.00 14 1009.4
20260505214549 88 318 4.0 14.0 0.00 0.00 0.00 15 1009.7
20260505213055 88 314 6.0 12.0 0.00 0.00 0.00 15 1010.0
20260505211543 89 284 8.0 18.0 0.00 0.00 0.00 14 1010.5
20260505210042 88 285 4.0 18.0 0.00 0.00 0.00 15 1010.7
20260505204541 88 308 8.0 13.0 0.00 0.00 0.00 15 1010.9
20260505203046 88 317 7.0 17.0 0.00 0.00 0.00 15 1011.1
20260505201538 86 252 1.0 12.0 0.00 0.00 0.00 17 1011.3
20260505200036 85 198 6.0 14.0 0.00 0.00 0.00 17 1011.6
20260505194534 85 292 4.0 17.0 0.00 0.00 0.00 17 1011.7
20260505193033 85 287 13.0 18.0 0.00 0.00 0.00 17 1011.9
20260505191532 86 215 3.0 10.0 0.00 0.00 0.00 17 1011.8
20260505190033 84 198 5.0 12.0 0.00 0.00 0.00 17 1012.0
20260505184529 84 221 5.0 17.0 0.00 0.00 0.00 18 1012.3
20260505183027 84 360 11.0 18.0 0.00 0.00 0.00 17 1012.6
20260505181527 83 360 9.0 18.0 0.00 0.00 0.00 17 1012.6
20260505180025 83 277 3.0 16.0 0.00 0.00 0.00 17 1012.7
20260505174524 83 297 10.0 15.0 0.00 0.00 0.00 17 1012.7
20260505173037 82 279 5.0 16.0 0.00 0.00 0.00 19 1012.7
20260505171522 84 287 6.0 17.0 0.00 0.00 0.00 18 1012.8
20260505170026 83 360 8.0 18.0 0.00 0.00 0.00 18 1012.8
20260505164537 82 309 3.0 9.0 0.00 0.00 0.00 19 1012.7
20260505163015 81 325 5.0 14.0 0.00 0.00 0.00 19 1012.7
20260505161513 82 319 5.0 13.0 0.00 0.00 0.00 19 1012.7
20260505153010 80 73 3.0 6.0 0.00 0.00 0.00 25 1012.7
20260505151503 79 198 1.0 4.0 0.00 0.00 0.00 28 1012.8
20260505124538 60 360 0.0 3.0 0.00 0.00 0.00 47 1011.7
20260505123031 61 360 2.0 5.0 0.00 0.00 0.00 44 1011.5
20260505121536 61 360 2.0 3.0 0.00 0.00 0.00 41 1011.4
20260505120027 62 360 2.0 4.0 0.00 0.00 0.00 42 1011.3
20260505114534 63 360 1.0 2.0 0.00 0.00 0.00 39 1011.2
20260505113025 62 360 1.0 3.0 0.00 0.00 0.00 41 1010.8
20260505111530 64 360 0.0 2.0 0.00 0.00 0.00 37 1010.8
20260505101518 63 360 3.0 6.0 0.00 0.00 0.00 40 1010.9
20260505100016 65 360 1.0 5.0 0.00 0.00 0.00 36 1010.8
20260505094515 64 360 2.0 5.0 0.00 0.00 0.00 37 1010.8
20260505093011 65 360 1.0 3.0 0.00 0.00 0.00 35 1010.9
20260505091509 67 360 1.0 3.0 0.00 0.00 0.00 33 1011.0